SCP
-0 -0 -0 -0 0 0 0 0 0 0 0 0 0 0 0 0 0 0 0 0 0 0 0 0 0 0 0 0 0 0 0 0 0 0 0 0 0 0 0 0 0 0 0 0 0 0 0 0 0 0 0 0 0 0
-0 -0 0 0 0 0 0 0 0 0 0 0 0 0 0 0 0 0 0 0 0 0 0 0 0 0 0 0 0 0 0 0 0 0 0 0 0 0 0 0 0 0 0 0 0 0 0 0 0 0 0 0 0 0
-0 -0 -0 0 0 0 0 0 0 0 0 0 0 0 0 0 0 0 0 0 0 0 0 0 0 0 0 0 0 0 0 0 0 0 0 0 0 0 0 0 0 0 0 0 0 0 0 0 0 0 0 0 0 0
-0 -0 0 0 0 0 0 0 0 0 0 0 0 0 0 0 0 0 0 0 0 0 0 0 0 0 0 0 0 0 0 0 0 0 0 0 0 0 0 0 0 0 0 0 0 0 0 0 0 0 0 0 0 0
-0 -0 -0 -0 -0 0 0 0 0 0 0 0 0 0 0 0 0 0 0 0 0 0 0 0 0 0 0 0 0 0 0 0 0 0 0 0 0 0 0 0 0 0 0 0 0 0 0 0 0 0 0 0 0 0
-0 -0 -0 -0 -0 -0 -0 -0 -0 0 0 0 0 0 0 0 0 0 0 0 0 0 0 -0 -0 0 0 0 0 0 0 0 0 0 0 0 0 0 0 0 0 0 0 0 0 0 0 0 0 0 0 0 0 0
0 0 0 -0 -0 -0 -0 0 0 0 0 0 0 0 0 0 0 0 0 0 0 0 0 -0 0 0 0 0 0 0 0 0 0 0 0 0 0 0 0 0 0 0 0 0 0 0 0 0 0 0 0 0 0 0
0 -0 0 0 0 0 -0 0 0 0 0 0 0 0 0 0 0 0 0 -0 0 0 0 0 0 0 0 0 0 0 0 0 0 0 0 0 0 0 0 0 0 0 0 0 0 0 0 0 0 0 0 0 0 0
0 0 0 0 0 -0 -0 -0 -0 0 -0 -0 -0 -0 0 -0 -0 -0 -0 0 0 0 0 0 0 0 0 0 0 0 0 0 0 0 0 0 0 0 0 0 0 0 0 0 0 0 0 0 0 0 0 0 0 0
0 0 0 0 0 0 0 0 0 -0 -0 -0 -0 0 0 0 0 -0 0 0 0 0 0 0 0 0 0 0 0 0 0 0 0 0 0 0 0 0 0 0 0 0 0 0 0 0 0 0 0 0 0 0 0 0
0 0 0 0 0 0 0 0 0 -0 0 0 0 0 0 0 0 0 0 0 0 -0 -0 0 0 0 0 0 0 0 0 0 0 0 0 0 0 0 0 0 0 0 0 0 0 0 0 0 0 0 0 0 0 0
-0 -0 -0 0 0 0 0 0 0 0 0 0 0 0 0 -0 0 0 0 0 -0 -0 -0 -0 0 0 0 0 0 0 0 0 0 0 0 0 0 0 0 0 0 0 0 0 0 0 0 0 0 0 0 0 0 0
-0 -0 0 0 0 0 0 -0 -0 -0 0 0 0 0 0 -0 0 0 0 0 -0 -0 0 0 0 0 0 0 0 0 0 0 0 0 0 0 0 0 0 0 0 0 0 0 0 0 0 0 0 0 0 0 0 0
-0 -0 0 -0 -0 -0 -0 -0 -0 -0 0 -0 -0 0 0 0 0 0 0 0 0 0 0 0 0 0 0 0 0 0 0 0 0 0 0 0 0 0 0 0 0 0 0 0 0 0 0 0 0 0 0 0 0 0
-0 -0 -0 -0 -0 -0 -0 -0 -0 -0 0 0 0 0 0 0 0 0 0 0 0 0 0 0 0 0 0 0 0 0 0 0 0 0 0 0 0 0 0 0 0 0 0 0 0 0 0 0 0 0 0 0 0 0
-0 -0 -0 -0 -0 -0 -0 -0 -0 0 0 0 0 0 0 0 0 0 0 0 0 0 0 0 0 0 0 0 0 0 0 0 0 0 0 0 0 0 0 0 0 0 0 0 0 0 0 0 0 0 0 0 0 0
0 -0 -0 -0 -0 0 -0 0 0 0 0 0 0 0 0 0 0 0 0 0 0 0 0 0 0 0 0 0 0 0 0 0 0 0 0 0 0 0 0 0 0 0 0 0 0 0 0 0 0 0 0 0 0 0
0 0 -0 -0 -0 0 0 0 0 0 0 0 0 0 0 0 0 0 0 0 0 0 0 0 0 0 0 0 0 0 0 0 0 0 0 0 0 0 0 0 0 0 0 0 0 0 0 0 0 0 0 0 0 0
0 -0 -0 -0 -0 -0 -0 0 0 -0 -0 0 -0 -0 0 0 0 0 0 0 0 0 0 0 0 0 0 0 0 0 0 0 0 0 0 0 0 0 0 0 0 0 0 0 0 0 0 0 0 0 0 0 0 0
-0 -0 -0 -0 -0 0 0 -0 0 -0 -0 0 0 -0 -0 0 0 0 0 0 0 0 0 0 0 0 0 0 0 0 0 0 0 0 0 0 0 0 0 0 0 0 0 0 0 0 0 0 0 0 0 0 0 0
-0 0 -0 -0 0 0 -0 -0 -0 -0 0 0 -0 0 0 0 0 0 0 0 0 0 0 0 0 0 0 0 0 0 0 0 0 0 0 0 0 0 0 0 0 0 0 0 0 0 0 0 0 0 0 0 0 0
-0 0 -0 -0 0 0 0 -0 -0 -0 -0 -0 0 -0 0 0 0 0 0 0 0 0 0 0 0 0 0 0 0 0 0 0 0 0 0 0 0 0 0 0 0 0 0 0 0 0 0 0 0 0 0 0 0 0
-0 0 0 -0 0 0 -0 -0 -0 -0 -0 -0 0 0 0 0 0 0 0 0 0 0 0 0 0 0 0 0 0 0 0 0 0 0 0 0 0 0 0 0 0 0 0 0 0 0 0 0 0 0 0 0 0 0
-0 -0 0 0 0 -0 -0 -0 0 0 0 0 0 0 0 0 0 0 0 0 0 0 0 0 0 0 0 0 0 0 0 0 0 0 0 0 0 0 0 0 0 0 0 0 0 0 0 0 0 0 0 0 0 0
-0 -0 -0 0 -0 0 0 0 0 0 0 0 0 0 0 0 0 0 0 0 0 0 0 0 0 0 0 0 0 0 0 0 0 0 0 0 0 0 0 0 0 0 0 0 0 0 0 0 0 0 0 0 0 0
-0 -0 0 0 0 0 0 0 0 0 0 0 0 0 0 0 0 0 0 0 0 0 0 0 0 0 0 0 0 0 0 0 0 0 0 0 0 0 0 0 0 0 0 0 0 0 0 0 0 0 0 0 0 0
-0 -0 0 0 0 0 0 0 0 0 0 0 0 0 0 0 0 0 0 0 0 0 0 0 0 0 0 0 0 0 0 0 0 0 0 0 0 0 0 0 0 0 0 0 0 0 0 0 0 0 0 0 0 0
-0 0 0 0 0 0 0 0 0 0 0 0 0 0 0 0 0 0 0 0 0 0 0 0 0 0 0 0 0 0 0 0 0 0 0 0 0 0 0 0 0 0 0 0 0 0 0 0 0 0 0 0 0 0
0 -0 0 0 0 0 0 0 0 0 0 0 0 0 0 0 0 0 0 0 0 0 0 0 0 0 0 0 0 0 0 0 0 0 0 0 0 0 0 0 0 0 0 0 0 0 0 0 0 0 0 0 0 0
0 -0 0 0 0 0 0 0 0 0 0 0 0 0 0 0 0 0 0 0 0 0 0 0 0 0 0 0 0 0 0 0 0 0 0 0 0 0 0 0 0 0 0 0 0 0 0 0 0 0 0 0 0 0
-0 0 0 0 0 -0 -0 -0 -0 0 0 0 0 0 0 0 0 0 0 0 0 0 0 0 0 0 0 0 0 0 0 0 0 0 0 0 0 0 0 0 0 0 0 0 0 0 0 0 0 0 0 0 0 0
-0 -0 0 0 -0 -0 -0 0 0 0 0 0 0 0 0 0 0 0 0 0 0 0 0 0 0 0 0 0 0 0 0 0 0 0 0 0 0 0 0 0 0 0 0 0 0 0 0 0 0 0 0 0 0 0
0 0 0 0 0 0 -0 0 0 0 0 0 0 0 0 0 0 0 0 0 0 0 0 0 0 0 0 0 0 0 0 0 0 0 0 0 0 0 0 0 0 0 0 0 0 0 0 0 0 0 0 0 0 0
Wind_Speed_500mb
19 21 23 33 43 48 53 62 74 123 129 117 106 100 98 116 119 87 60 65 46 16 5 21 22 37 40 56 13 17 14 15 4 7 6 6 6 9 9 8 9 12 14 8 6 3 15 22 17 18 16 14 23 43
30 24 30 38 43 46 45 101 116 117 110 97 93 94 97 108 120 86 55 57 31 15 4 4 10 21 44 81 62 54 18 17 25 7 7 5 5 2 9 18 4 8 12 9 18 12 4 56 18 44 17 16 22 49
57 54 45 50 55 79 88 95 92 88 86 85 86 90 92 106 106 80 51 52 30 1 15 12 13 13 24 63 72 24 23 21 19 24 11 5 9 9 7 10 8 8 8 6 4 8 10 26 39 25 34 27 22 45
56 58 63 72 66 64 71 74 78 77 81 89 100 88 91 93 85 79 56 38 44 8 4 9 10 24 20 37 53 66 20 30 11 16 5 4 5 14 8 8 10 7 16 11 8 9 10 34 47 47 36 27 31 44
52 53 54 62 65 71 70 71 70 69 80 82 81 81 81 70 62 58 65 38 41 13 4 12 17 23 27 30 33 56 66 34 8 6 4 6 6 5 1 1 6 14 13 10 12 26 22 23 44 49 40 39 46 57
45 46 51 53 58 70 65 70 71 69 68 82 74 69 71 64 60 54 21 36 45 37 8 2 30 54 33 26 35 43 53 58 32 13 8 12 12 13 8 10 8 46 35 33 7 20 33 20 23 43 47 51 55 58
41 45 46 46 55 57 58 64 64 67 65 63 61 58 52 49 48 39 16 13 51 55 11 5 4 19 42 30 29 38 49 32 36 22 12 10 10 14 3 17 9 31 46 40 32 24 16 30 24 43 51 53 53 53
30 37 42 46 49 51 51 52 54 54 54 54 58 60 56 53 43 48 25 33 63 31 7 3 6 7 6 11 11 20 21 34 28 18 8 7 6 3 9 9 27 31 27 29 34 38 28 35 37 51 54 57 57 58
38 39 38 39 41 44 48 48 48 58 63 57 61 62 50 45 22 39 39 45 54 28 7 5 4 4 5 5 9 9 9 3 13 6 6 16 7 15 10 18 33 35 32 30 39 31 25 41 54 59 61 62 65 65
47 53 59 60 60 52 42 50 65 67 73 68 62 18 11 35 35 50 42 22 6 8 9 5 8 3 3 2 3 5 5 4 5 6 23 8 9 15 16 16 27 37 32 30 35 25 41 46 55 54 54 55 56 63
41 43 47 53 55 52 54 60 88 78 67 41 11 11 27 45 28 11 10 9 11 5 12 12 15 3 6 4 3 7 2 1 3 6 9 6 6 7 30 26 28 30 30 32 26 30 38 55 67 57 51 52 60 67
39 40 41 44 48 50 69 92 84 43 14 13 19 40 44 17 10 9 8 5 9 11 13 8 9 14 5 4 5 4 1 1 7 4 1 4 6 21 10 24 29 26 31 27 20 26 37 50 54 61 60 58 58 60
37 37 36 39 43 50 54 61 38 22 46 41 14 10 4 10 13 11 13 6 5 5 13 13 6 15 8 6 6 3 6 6 3 2 3 5 13 9 12 21 26 26 25 33 36 34 38 45 47 52 59 59 60 59
36 34 34 35 38 36 37 39 30 23 13 8 4 7 3 5 7 4 4 5 3 5 14 16 8 5 8 4 3 6 3 1 1 1 5 6 5 17 22 20 27 30 28 31 41 43 46 48 51 52 57 59 60 58
38 36 35 34 33 28 20 12 8 18 11 9 9 7 8 9 16 14 11 9 7 8 16 14 11 6 4 5 1 3 3 5 5 4 5 8 5 16 22 27 32 35 39 44 44 46 52 56 59 61 55 53 49 52
35 34 35 35 32 26 19 9 10 10 7 10 18 12 22 8 14 22 28 15 16 9 11 7 6 6 5 4 7 8 3 6 5 5 12 3 11 18 26 31 35 39 42 45 46 48 54 56 58 58 55 50 40 33
42 31 34 30 33 29 31 17 11 12 13 11 10 47 26 9 10 18 26 31 18 7 5 6 10 7 5 7 7 8 8 10 20 20 18 13 19 28 33 37 39 42 45 46 51 54 57 58 58 54 51 43 32 27
28 31 43 47 44 45 15 13 11 15 17 21 9 34 38 38 42 38 48 47 14 10 9 9 11 13 10 8 6 9 18 22 31 32 31 27 26 30 35 44 46 49 55 56 55 54 52 47 42 39 39 35 31 26
40 52 60 51 53 17 10 13 14 12 25 14 30 26 25 38 58 54 48 42 50 37 18 14 13 9 8 10 19 36 32 18 28 46 50 44 43 47 51 53 56 57 54 50 46 44 39 35 33 30 27 23 19 16
70 70 57 27 16 10 12 12 11 16 12 7 14 41 35 32 42 52 63 59 52 23 20 11 9 18 16 29 26 21 20 23 38 52 53 51 49 51 51 50 48 43 42 39 37 34 32 30 25 20 17 13 8 5
46 37 32 38 33 23 16 10 14 13 17 14 22 25 26 49 69 63 59 45 46 19 13 24 30 33 33 33 32 32 35 36 48 49 44 54 49 49 46 44 41 40 41 38 36 33 26 25 20 12 6 2 2 6
53 42 27 17 15 15 19 23 13 10 11 11 10 13 13 12 18 33 40 41 20 24 24 33 35 37 48 53 51 53 52 54 55 56 55 52 56 54 52 46 41 44 41 37 30 27 25 20 15 12 10 10 12 15
26 20 18 19 15 14 8 15 10 12 7 5 7 8 10 11 13 18 16 21 19 34 30 30 34 43 49 52 56 60 59 61 65 62 59 59 57 53 49 46 41 39 36 34 26 22 19 16 15 16 17 19 21 23
20 17 16 15 20 6 9 14 12 10 11 8 6 7 8 10 12 15 7 10 27 34 39 34 36 43 50 55 59 54 53 51 56 57 52 47 50 49 42 40 35 34 31 24 20 19 18 19 21 22 24 26 27 28
17 24 16 13 19 14 12 9 11 10 7 7 7 7 6 10 6 6 5 9 26 35 35 36 36 42 47 47 46 46 41 42 44 49 46 40 38 35 35 33 32 31 26 21 23 24 24 25 27 29 30 31 31 31
16 24 13 10 8 10 6 7 8 6 6 7 8 6 8 7 8 6 5 9 16 22 25 28 30 37 41 40 40 41 40 35 34 41 41 33 31 29 28 25 24 24 25 26 26 27 28 30 31 31 30 31 32 35
12 10 16 19 10 13 12 14 12 12 9 8 5 6 6 9 5 6 8 11 16 21 21 20 23 29 34 36 36 33 28 27 31 33 29 24 23 23 22 23 25 25 26 27 28 29 31 32 33 33 33 35 36 37
11 16 9 16 20 22 8 7 8 8 5 10 7 10 7 6 4 5 8 13 15 17 18 20 20 20 20 21 22 21 22 24 23 21 19 22 23 24 24 24 24 24 25 26 27 29 31 32 33 34 35 37 36 35
16 9 10 15 14 18 19 9 6 7 7 5 7 4 6 7 12 19 18 11 7 7 9 12 18 19 18 18 17 17 18 17 13 13 16 17 17 19 21 22 22 23 24 25 26 28 30 30 31 32 33 34 34 31
12 12 13 13 10 8 14 14 13 15 17 18 17 26 30 26 23 20 17 13 8 7 10 12 12 11 7 6 9 12 17 17 18 18 18 20 21 21 23 24 26 26 25 25 25 25 25 24 25 26 28 29 30 29
9 10 14 14 12 13 33 40 35 32 33 29 37 36 24 16 17 15 12 10 10 11 11 8 5 3 5 9 13 14 15 17 18 18 19 19 19 21 23 24 24 23 23 23 24 25 26 27 29 30 30 30 30 30
12 12 12 8 8 30 12 7 7 9 8 7 8 11 10 8 9 14 11 11 12 8 5 1 2 3 7 10 10 12 13 16 17 18 18 17 19 21 22 22 21 21 21 22 22 23 24 25 27 28 29 30 30 31
20 26 23 14 12 13 11 4 6 6 7 6 5 6 4 5 6 14 15 11 7 4 2 4 4 6 8 9 11 12 15 16 16 17 18 20 22 22 21 20 19 19 19 19 20 22 23 25 26 28 29 30 31 31
Wind_Direction_500mb
45 77 103 117 134 148 157 173 175 169 173 171 175 177 180 185 186 173 179 184 187 179 241 191 171 174 173 193 159 159 160 231 78 153 162 209 189 228 173 198 191 171 160 179 118 187 252 158 127 176 214 184 203 196
70 102 113 121 134 145 143 153 159 167 167 165 171 173 178 183 186 174 169 192 174 189 155 134 214 166 182 192 180 174 185 168 174 162 189 134 193 194 189 220 116 255 205 183 189 210 202 183 203 202 199 212 198 196
67 101 117 141 126 140 151 152 148 152 156 163 167 172 168 177 178 177 176 174 186 290 232 241 234 192 188 192 194 172 200 177 193 201 164 191 200 141 171 233 187 232 187 209 147 207 223 219 222 221 225 230 226 203
69 79 92 112 123 127 128 133 140 148 152 151 159 166 176 182 180 186 174 197 194 154 200 212 242 270 233 203 198 205 190 202 181 186 138 156 208 196 201 227 197 186 150 175 264 264 286 251 232 234 237 229 208 185
73 82 95 105 114 119 123 129 135 144 150 158 162 164 160 159 168 176 188 204 200 195 309 247 225 271 227 222 197 208 218 226 196 171 126 217 185 160 270 356 231 190 173 174 216 202 195 228 234 222 216 206 192 180
85 92 99 117 121 130 134 135 140 142 145 153 145 151 158 160 163 156 165 208 203 203 249 272 261 268 271 209 210 205 211 222 226 200 206 211 212 182 199 219 237 207 211 220 232 201 211 238 228 207 198 189 184 180
90 97 105 116 124 127 129 134 135 143 144 145 149 160 161 170 170 165 167 178 203 178 216 279 226 216 213 200 205 212 216 208 215 221 217 188 184 188 212 245 253 222 222 224 232 223 217 212 203 192 185 177 174 170
102 117 117 119 123 130 135 138 139 144 157 157 159 160 163 173 187 200 209 169 172 171 244 205 260 273 183 146 129 179 183 193 204 208 176 175 184 165 247 228 214 226 226 224 215 218 243 213 187 177 175 173 168 164
97 103 114 128 137 140 140 143 144 131 137 139 148 157 155 161 165 197 151 151 171 204 201 204 225 170 137 98 123 141 151 203 182 157 198 158 178 220 215 185 200 211 205 210 205 211 199 193 179 174 173 173 173 164
102 99 93 99 100 108 126 156 155 146 141 133 136 139 124 183 129 143 160 180 220 166 230 227 192 201 115 81 85 129 117 189 156 205 143 196 241 236 219 217 227 215 214 206 165 163 173 168 173 167 169 170 172 165
120 111 106 103 101 102 110 118 148 140 142 158 139 133 157 149 153 176 147 154 176 216 213 241 207 129 59 93 119 61 122 287 196 207 194 223 249 218 198 193 190 193 199 190 219 221 191 184 173 168 163 164 162 160
127 124 121 118 116 114 124 127 128 124 134 180 125 127 137 170 178 172 166 152 200 205 171 157 193 190 111 112 77 31 135 25 241 117 161 268 354 335 198 179 172 177 172 172 167 167 169 173 168 169 163 158 158 155
140 135 134 132 126 130 138 150 154 134 126 126 134 147 115 191 219 191 162 176 189 164 154 156 134 141 130 147 83 126 198 229 333 131 235 359 332 59 121 157 160 167 166 150 135 152 160 158 163 166 153 150 150 148
150 144 143 142 142 147 155 174 194 211 46 21 5 149 315 0 32 31 54 88 127 150 153 129 101 108 101 89 125 192 219 99 171 29 15 343 6 119 130 147 142 141 149 141 149 149 146 147 146 148 147 149 148 145
161 159 157 155 158 163 163 151 202 226 349 347 5 45 39 10 30 32 61 85 74 125 146 116 91 116 107 118 188 113 78 63 48 355 331 352 90 130 135 139 140 139 139 135 137 140 144 146 143 139 140 140 140 137
173 173 187 183 174 165 158 185 244 240 29 51 37 349 347 25 15 19 11 19 31 108 107 95 124 114 73 91 68 25 64 48 11 339 349 62 121 137 137 139 140 139 136 134 136 139 139 139 135 130 131 133 139 150
175 195 183 159 153 144 170 92 75 45 35 42 43 18 21 24 357 357 359 349 10 43 50 36 51 27 8 55 50 23 19 337 335 20 51 89 113 123 132 129 128 129 127 130 132 133 130 127 133 139 140 144 149 143
192 179 167 173 175 178 141 40 69 55 56 17 28 14 33 33 17 17 15 24 51 61 47 52 29 39 35 37 35 354 326 30 63 70 77 86 100 109 116 117 122 125 125 125 125 126 129 136 140 139 143 142 144 151
137 148 154 144 150 116 81 52 54 83 41 52 33 37 40 31 34 40 43 52 66 76 79 53 48 36 10 11 322 319 342 88 80 81 90 97 104 108 112 115 117 118 119 121 125 127 131 135 131 132 134 139 150 149
136 138 144 128 119 109 87 73 70 76 54 83 59 52 55 37 30 39 42 42 52 59 46 48 32 6 344 342 356 1 68 101 102 89 82 91 101 109 108 111 111 113 113 111 108 111 113 112 111 116 125 139 158 182
146 146 130 111 76 68 80 66 66 103 126 104 96 67 75 46 41 36 34 43 54 42 58 26 23 34 50 60 67 78 93 112 97 91 90 91 93 97 97 98 103 104 102 102 103 102 104 100 101 101 97 71 344 316
130 128 105 75 76 72 64 37 81 84 80 96 66 54 48 35 29 28 37 43 54 28 24 32 48 55 61 66 75 84 92 97 98 99 100 103 97 96 94 96 100 97 95 91 90 87 84 77 65 46 24 4 342 327
108 85 62 45 74 64 50 35 62 35 64 34 55 54 38 47 42 32 61 36 36 21 39 61 62 75 79 84 87 86 88 92 91 91 91 92 93 93 92 90 87 86 84 78 70 64 56 39 19 2 352 341 332 325
87 58 43 48 47 67 58 34 42 42 51 30 52 54 47 45 55 67 69 44 14 39 52 61 77 76 78 77 74 79 83 88 91 90 86 87 86 83 81 81 78 74 68 60 50 38 26 13 3 354 348 343 339 335
67 20 39 17 31 56 41 27 8 40 47 17 68 41 11 40 69 67 72 21 26 41 52 62 69 77 77 78 78 78 79 81 84 86 80 75 76 79 75 69 65 63 57 42 32 20 10 1 354 350 346 344 340 338
69 26 42 33 21 59 48 61 39 30 36 52 47 47 48 65 64 65 67 20 26 37 52 64 72 79 79 81 84 80 75 77 79 81 79 71 67 62 59 53 43 34 24 16 6 1 358 356 356 355 354 352 347 343
55 23 48 38 78 89 75 74 64 62 54 36 10 36 57 68 81 83 99 69 69 63 63 73 78 81 85 84 80 76 71 65 61 64 63 55 48 43 36 29 24 18 13 6 1 358 356 355 351 348 345 344 342 338
73 51 68 16 62 44 90 52 46 40 27 21 58 39 99 141 108 99 130 110 82 73 74 83 91 89 88 83 77 73 63 55 49 40 31 25 27 28 29 29 24 17 8 3 359 356 355 354 351 348 345 343 340 335
52 76 87 41 62 56 41 46 61 38 10 28 102 98 95 88 119 135 146 132 95 80 81 91 95 84 75 71 62 52 42 34 25 1 10 27 28 25 21 19 15 11 7 4 0 359 359 359 358 357 355 354 353 350
41 38 92 56 60 53 31 37 77 77 89 101 103 111 101 100 105 121 129 127 119 110 105 102 100 92 78 54 30 13 7 11 15 17 20 22 21 15 14 9 5 4 4 5 7 7 7 6 5 4 3 1 359 356
69 68 75 61 80 93 103 92 91 89 89 94 118 117 117 123 130 132 144 147 134 126 108 102 92 47 11 359 355 0 6 7 10 14 17 15 14 8 2 360 0 2 3 4 6 8 8 7 7 5 3 1 358 355
40 60 107 99 113 155 125 68 77 90 85 79 87 107 122 136 161 178 173 154 130 110 125 177 292 326 336 347 356 3 5 7 10 11 9 8 3 1 360 359 359 360 1 2 2 3 3 2 1 359 356 354 352 350
81 82 92 99 123 179 211 166 98 96 93 97 116 148 155 167 168 183 176 168 151 165 257 321 347 348 343 345 352 358 359 359 1 359 357 357 358 357 354 354 353 352 353 353 353 354 354 354 353 351 350 349 347 345
Wind_Speed_850mb
19 21 23 33 43 48 53 62 74 123 129 117 106 100 98 116 119 87 60 65 46 16 5 21 22 37 40 56 13 17 14 15 4 7 6 6 6 9 9 8 9 12 14 8 6 3 15 22 17 18 16 14 23 43
30 24 30 38 43 46 45 101 116 117 110 97 93 94 97 108 120 86 55 57 31 15 4 4 10 21 44 81 62 54 18 17 25 7 7 5 5 2 9 18 4 8 12 9 18 12 4 56 18 44 17 16 22 49
57 54 45 50 55 79 88 95 92 88 86 85 86 90 92 106 106 80 51 52 30 1 15 12 13 13 24 63 72 24 23 21 19 24 11 5 9 9 7 10 8 8 8 6 4 8 10 26 39 25 34 27 22 45
56 58 63 72 66 64 71 74 78 77 81 89 100 88 91 93 85 79 56 38 44 8 4 9 10 24 20 37 53 66 20 30 11 16 5 4 5 14 8 8 10 7 16 11 8 9 10 34 47 47 36 27 31 44
52 53 54 62 65 71 70 71 70 69 80 82 81 81 81 70 62 58 65 38 41 13 4 12 17 23 27 30 33 56 66 34 8 6 4 6 6 5 1 1 6 14 13 10 12 26 22 23 44 49 40 39 46 57
45 46 51 53 58 70 65 70 71 69 68 82 74 69 71 64 60 54 21 36 45 37 8 2 30 54 33 26 35 43 53 58 32 13 8 12 12 13 8 10 8 46 35 33 7 20 33 20 23 43 47 51 55 58
41 45 46 46 55 57 58 64 64 67 65 63 61 58 52 49 48 39 16 13 51 55 11 5 4 19 42 30 29 38 49 32 36 22 12 10 10 14 3 17 9 31 46 40 32 24 16 30 24 43 51 53 53 53
30 37 42 46 49 51 51 52 54 54 54 54 58 60 56 53 43 48 25 33 63 31 7 3 6 7 6 11 11 20 21 34 28 18 8 7 6 3 9 9 27 31 27 29 34 38 28 35 37 51 54 57 57 58
38 39 38 39 41 44 48 48 48 58 63 57 61 62 50 45 22 39 39 45 54 28 7 5 4 4 5 5 9 9 9 3 13 6 6 16 7 15 10 18 33 35 32 30 39 31 25 41 54 59 61 62 65 65
47 53 59 60 60 52 42 50 65 67 73 68 62 18 11 35 35 50 42 22 6 8 9 5 8 3 3 2 3 5 5 4 5 6 23 8 9 15 16 16 27 37 32 30 35 25 41 46 55 54 54 55 56 63
41 43 47 53 55 52 54 60 88 78 67 41 11 11 27 45 28 11 10 9 11 5 12 12 15 3 6 4 3 7 2 1 3 6 9 6 6 7 30 26 28 30 30 32 26 30 38 55 67 57 51 52 60 67
39 40 41 44 48 50 69 92 84 43 14 13 19 40 44 17 10 9 8 5 9 11 13 8 9 14 5 4 5 4 1 1 7 4 1 4 6 21 10 24 29 26 31 27 20 26 37 50 54 61 60 58 58 60
37 37 36 39 43 50 54 61 38 22 46 41 14 10 4 10 13 11 13 6 5 5 13 13 6 15 8 6 6 3 6 6 3 2 3 5 13 9 12 21 26 26 25 33 36 34 38 45 47 52 59 59 60 59
36 34 34 35 38 36 37 39 30 23 13 8 4 7 3 5 7 4 4 5 3 5 14 16 8 5 8 4 3 6 3 1 1 1 5 6 5 17 22 20 27 30 28 31 41 43 46 48 51 52 57 59 60 58
38 36 35 34 33 28 20 12 8 18 11 9 9 7 8 9 16 14 11 9 7 8 16 14 11 6 4 5 1 3 3 5 5 4 5 8 5 16 22 27 32 35 39 44 44 46 52 56 59 61 55 53 49 52
35 34 35 35 32 26 19 9 10 10 7 10 18 12 22 8 14 22 28 15 16 9 11 7 6 6 5 4 7 8 3 6 5 5 12 3 11 18 26 31 35 39 42 45 46 48 54 56 58 58 55 50 40 33
42 31 34 30 33 29 31 17 11 12 13 11 10 47 26 9 10 18 26 31 18 7 5 6 10 7 5 7 7 8 8 10 20 20 18 13 19 28 33 37 39 42 45 46 51 54 57 58 58 54 51 43 32 27
28 31 43 47 44 45 15 13 11 15 17 21 9 34 38 38 42 38 48 47 14 10 9 9 11 13 10 8 6 9 18 22 31 32 31 27 26 30 35 44 46 49 55 56 55 54 52 47 42 39 39 35 31 26
40 52 60 51 53 17 10 13 14 12 25 14 30 26 25 38 58 54 48 42 50 37 18 14 13 9 8 10 19 36 32 18 28 46 50 44 43 47 51 53 56 57 54 50 46 44 39 35 33 30 27 23 19 16
70 70 57 27 16 10 12 12 11 16 12 7 14 41 35 32 42 52 63 59 52 23 20 11 9 18 16 29 26 21 20 23 38 52 53 51 49 51 51 50 48 43 42 39 37 34 32 30 25 20 17 13 8 5
46 37 32 38 33 23 16 10 14 13 17 14 22 25 26 49 69 63 59 45 46 19 13 24 30 33 33 33 32 32 35 36 48 49 44 54 49 49 46 44 41 40 41 38 36 33 26 25 20 12 6 2 2 6
53 42 27 17 15 15 19 23 13 10 11 11 10 13 13 12 18 33 40 41 20 24 24 33 35 37 48 53 51 53 52 54 55 56 55 52 56 54 52 46 41 44 41 37 30 27 25 20 15 12 10 10 12 15
26 20 18 19 15 14 8 15 10 12 7 5 7 8 10 11 13 18 16 21 19 34 30 30 34 43 49 52 56 60 59 61 65 62 59 59 57 53 49 46 41 39 36 34 26 22 19 16 15 16 17 19 21 23
20 17 16 15 20 6 9 14 12 10 11 8 6 7 8 10 12 15 7 10 27 34 39 34 36 43 50 55 59 54 53 51 56 57 52 47 50 49 42 40 35 34 31 24 20 19 18 19 21 22 24 26 27 28
17 24 16 13 19 14 12 9 11 10 7 7 7 7 6 10 6 6 5 9 26 35 35 36 36 42 47 47 46 46 41 42 44 49 46 40 38 35 35 33 32 31 26 21 23 24 24 25 27 29 30 31 31 31
16 24 13 10 8 10 6 7 8 6 6 7 8 6 8 7 8 6 5 9 16 22 25 28 30 37 41 40 40 41 40 35 34 41 41 33 31 29 28 25 24 24 25 26 26 27 28 30 31 31 30 31 32 35
12 10 16 19 10 13 12 14 12 12 9 8 5 6 6 9 5 6 8 11 16 21 21 20 23 29 34 36 36 33 28 27 31 33 29 24 23 23 22 23 25 25 26 27 28 29 31 32 33 33 33 35 36 37
11 16 9 16 20 22 8 7 8 8 5 10 7 10 7 6 4 5 8 13 15 17 18 20 20 20 20 21 22 21 22 24 23 21 19 22 23 24 24 24 24 24 25 26 27 29 31 32 33 34 35 37 36 35
16 9 10 15 14 18 19 9 6 7 7 5 7 4 6 7 12 19 18 11 7 7 9 12 18 19 18 18 17 17 18 17 13 13 16 17 17 19 21 22 22 23 24 25 26 28 30 30 31 32 33 34 34 31
12 12 13 13 10 8 14 14 13 15 17 18 17 26 30 26 23 20 17 13 8 7 10 12 12 11 7 6 9 12 17 17 18 18 18 20 21 21 23 24 26 26 25 25 25 25 25 24 25 26 28 29 30 29
9 10 14 14 12 13 33 40 35 32 33 29 37 36 24 16 17 15 12 10 10 11 11 8 5 3 5 9 13 14 15 17 18 18 19 19 19 21 23 24 24 23 23 23 24 25 26 27 29 30 30 30 30 30
12 12 12 8 8 30 12 7 7 9 8 7 8 11 10 8 9 14 11 11 12 8 5 1 2 3 7 10 10 12 13 16 17 18 18 17 19 21 22 22 21 21 21 22 22 23 24 25 27 28 29 30 30 31
20 26 23 14 12 13 11 4 6 6 7 6 5 6 4 5 6 14 15 11 7 4 2 4 4 6 8 9 11 12 15 16 16 17 18 20 22 22 21 20 19 19 19 19 20 22 23 25 26 28 29 30 31 31
Wind_Direction_850mb
45 77 103 117 134 148 157 173 175 169 173 171 175 177 180 185 186 173 179 184 187 179 241 191 171 174 173 193 159 159 160 231 78 153 162 209 189 228 173 198 191 171 160 179 118 187 252 158 127 176 214 184 203 196
70 102 113 121 134 145 143 153 159 167 167 165 171 173 178 183 186 174 169 192 174 189 155 134 214 166 182 192 180 174 185 168 174 162 189 134 193 194 189 220 116 255 205 183 189 210 202 183 203 202 199 212 198 196
67 101 117 141 126 140 151 152 148 152 156 163 167 172 168 177 178 177 176 174 186 290 232 241 234 192 188 192 194 172 200 177 193 201 164 191 200 141 171 233 187 232 187 209 147 207 223 219 222 221 225 230 226 203
69 79 92 112 123 127 128 133 140 148 152 151 159 166 176 182 180 186 174 197 194 154 200 212 242 270 233 203 198 205 190 202 181 186 138 156 208 196 201 227 197 186 150 175 264 264 286 251 232 234 237 229 208 185
73 82 95 105 114 119 123 129 135 144 150 158 162 164 160 159 168 176 188 204 200 195 309 247 225 271 227 222 197 208 218 226 196 171 126 217 185 160 270 356 231 190 173 174 216 202 195 228 234 222 216 206 192 180
85 92 99 117 121 130 134 135 140 142 145 153 145 151 158 160 163 156 165 208 203 203 249 272 261 268 271 209 210 205 211 222 226 200 206 211 212 182 199 219 237 207 211 220 232 201 211 238 228 207 198 189 184 180
90 97 105 116 124 127 129 134 135 143 144 145 149 160 161 170 170 165 167 178 203 178 216 279 226 216 213 200 205 212 216 208 215 221 217 188 184 188 212 245 253 222 222 224 232 223 217 212 203 192 185 177 174 170
102 117 117 119 123 130 135 138 139 144 157 157 159 160 163 173 187 200 209 169 172 171 244 205 260 273 183 146 129 179 183 193 204 208 176 175 184 165 247 228 214 226 226 224 215 218 243 213 187 177 175 173 168 164
97 103 114 128 137 140 140 143 144 131 137 139 148 157 155 161 165 197 151 151 171 204 201 204 225 170 137 98 123 141 151 203 182 157 198 158 178 220 215 185 200 211 205 210 205 211 199 193 179 174 173 173 173 164
102 99 93 99 100 108 126 156 155 146 141 133 136 139 124 183 129 143 160 180 220 166 230 227 192 201 115 81 85 129 117 189 156 205 143 196 241 236 219 217 227 215 214 206 165 163 173 168 173 167 169 170 172 165
120 111 106 103 101 102 110 118 148 140 142 158 139 133 157 149 153 176 147 154 176 216 213 241 207 129 59 93 119 61 122 287 196 207 194 223 249 218 198 193 190 193 199 190 219 221 191 184 173 168 163 164 162 160
127 124 121 118 116 114 124 127 128 124 134 180 125 127 137 170 178 172 166 152 200 205 171 157 193 190 111 112 77 31 135 25 241 117 161 268 354 335 198 179 172 177 172 172 167 167 169 173 168 169 163 158 158 155
140 135 134 132 126 130 138 150 154 134 126 126 134 147 115 191 219 191 162 176 189 164 154 156 134 141 130 147 83 126 198 229 333 131 235 359 332 59 121 157 160 167 166 150 135 152 160 158 163 166 153 150 150 148
150 144 143 142 142 147 155 174 194 211 46 21 5 149 315 0 32 31 54 88 127 150 153 129 101 108 101 89 125 192 219 99 171 29 15 343 6 119 130 147 142 141 149 141 149 149 146 147 146 148 147 149 148 145
161 159 157 155 158 163 163 151 202 226 349 347 5 45 39 10 30 32 61 85 74 125 146 116 91 116 107 118 188 113 78 63 48 355 331 352 90 130 135 139 140 139 139 135 137 140 144 146 143 139 140 140 140 137
173 173 187 183 174 165 158 185 244 240 29 51 37 349 347 25 15 19 11 19 31 108 107 95 124 114 73 91 68 25 64 48 11 339 349 62 121 137 137 139 140 139 136 134 136 139 139 139 135 130 131 133 139 150
175 195 183 159 153 144 170 92 75 45 35 42 43 18 21 24 357 357 359 349 10 43 50 36 51 27 8 55 50 23 19 337 335 20 51 89 113 123 132 129 128 129 127 130 132 133 130 127 133 139 140 144 149 143
192 179 167 173 175 178 141 40 69 55 56 17 28 14 33 33 17 17 15 24 51 61 47 52 29 39 35 37 35 354 326 30 63 70 77 86 100 109 116 117 122 125 125 125 125 126 129 136 140 139 143 142 144 151
137 148 154 144 150 116 81 52 54 83 41 52 33 37 40 31 34 40 43 52 66 76 79 53 48 36 10 11 322 319 342 88 80 81 90 97 104 108 112 115 117 118 119 121 125 127 131 135 131 132 134 139 150 149
136 138 144 128 119 109 87 73 70 76 54 83 59 52 55 37 30 39 42 42 52 59 46 48 32 6 344 342 356 1 68 101 102 89 82 91 101 109 108 111 111 113 113 111 108 111 113 112 111 116 125 139 158 182
146 146 130 111 76 68 80 66 66 103 126 104 96 67 75 46 41 36 34 43 54 42 58 26 23 34 50 60 67 78 93 112 97 91 90 91 93 97 97 98 103 104 102 102 103 102 104 100 101 101 97 71 344 316
130 128 105 75 76 72 64 37 81 84 80 96 66 54 48 35 29 28 37 43 54 28 24 32 48 55 61 66 75 84 92 97 98 99 100 103 97 96 94 96 100 97 95 91 90 87 84 77 65 46 24 4 342 327
108 85 62 45 74 64 50 35 62 35 64 34 55 54 38 47 42 32 61 36 36 21 39 61 62 75 79 84 87 86 88 92 91 91 91 92 93 93 92 90 87 86 84 78 70 64 56 39 19 2 352 341 332 325
87 58 43 48 47 67 58 34 42 42 51 30 52 54 47 45 55 67 69 44 14 39 52 61 77 76 78 77 74 79 83 88 91 90 86 87 86 83 81 81 78 74 68 60 50 38 26 13 3 354 348 343 339 335
67 20 39 17 31 56 41 27 8 40 47 17 68 41 11 40 69 67 72 21 26 41 52 62 69 77 77 78 78 78 79 81 84 86 80 75 76 79 75 69 65 63 57 42 32 20 10 1 354 350 346 344 340 338
69 26 42 33 21 59 48 61 39 30 36 52 47 47 48 65 64 65 67 20 26 37 52 64 72 79 79 81 84 80 75 77 79 81 79 71 67 62 59 53 43 34 24 16 6 1 358 356 356 355 354 352 347 343
55 23 48 38 78 89 75 74 64 62 54 36 10 36 57 68 81 83 99 69 69 63 63 73 78 81 85 84 80 76 71 65 61 64 63 55 48 43 36 29 24 18 13 6 1 358 356 355 351 348 345 344 342 338
73 51 68 16 62 44 90 52 46 40 27 21 58 39 99 141 108 99 130 110 82 73 74 83 91 89 88 83 77 73 63 55 49 40 31 25 27 28 29 29 24 17 8 3 359 356 355 354 351 348 345 343 340 335
52 76 87 41 62 56 41 46 61 38 10 28 102 98 95 88 119 135 146 132 95 80 81 91 95 84 75 71 62 52 42 34 25 1 10 27 28 25 21 19 15 11 7 4 0 359 359 359 358 357 355 354 353 350
41 38 92 56 60 53 31 37 77 77 89 101 103 111 101 100 105 121 129 127 119 110 105 102 100 92 78 54 30 13 7 11 15 17 20 22 21 15 14 9 5 4 4 5 7 7 7 6 5 4 3 1 359 356
69 68 75 61 80 93 103 92 91 89 89 94 118 117 117 123 130 132 144 147 134 126 108 102 92 47 11 359 355 0 6 7 10 14 17 15 14 8 2 360 0 2 3 4 6 8 8 7 7 5 3 1 358 355
40 60 107 99 113 155 125 68 77 90 85 79 87 107 122 136 161 178 173 154 130 110 125 177 292 326 336 347 356 3 5 7 10 11 9 8 3 1 360 359 359 360 1 2 2 3 3 2 1 359 356 354 352 350
81 82 92 99 123 179 211 166 98 96 93 97 116 148 155 167 168 183 176 168 151 165 257 321 347 348 343 345 352 358 359 359 1 359 357 357 358 357 354 354 353 352 353 353 353 354 354 354 353 351 350 349 347 345